Regional Weather Roundup
Issued by NWS State College, PA

Home | Current Version | Previous Version | Graphics & Text | Print | Product List | Glossary On
Versions: 1 2 3 4 5 6 7 8 9 10 11 12 13 14 15 16 17 18 19 20 21 22 23 24 25 26 27 28 29 30 31 32 33 34 35 36 37 38 39 40 41 42 43 44 45 46 47 48 49 50
000
ASUS41 KCTP 271103
RWRCTP

REGIONAL WEATHER ROUNDUP
NATIONAL WEATHER SERVICE STATE COLLEGE PA
700 AM EDT WED MAY 27 2015

Note: "fair" indicates few or no clouds below 12,000 feet with no
significant weather and/or obstructions to visibility.

* = STATION THAT DOES NOT REPORT PRECIPITATION /E.G. RAIN...SNOW...ETC/
    THUNDER OR FOG.

PAZ002>004-007>009-013>016-020>023-029>032-271200-
WESTERN PENNSYLVANIA

CITY           SKY/WX    TMP DP  RH WIND       PRES   REMARKS
ERIE           MOSUNNY   69  62  78 S13G21    30.03R
MEADVILLE      CLOUDY    66  62  87 S8        30.08R
FRANKLIN*      CLOUDY    64  61  88 SW8       30.11R
NEW CASTLE     CLOUDY    66  66 100 CALM      30.10R
BEAVER COUNTY  MOSUNNY   64  63  94 S7        30.10
BUTLER*        CLOUDY    64  63  94 SW6       30.13R
PITTSBURGH INT CLOUDY    66  63  90 S6        30.11R
PITTSBURGH     LGT RAIN  65  60  84 S8        30.11R
INDIANA*       PTSUNNY   68  64  88 SW7       30.16R
LATROBE        CLOUDY    68  64  88 SW8       30.14R
WASHINGTON CO* CLOUDY    63  61  94 CALM      30.14R
$$

PAZ004>006-010>012-017>019-024>028-033>037-041-042-045-046-049>053-271200-
CENTRAL PENNSYLVANIA

CITY           SKY/WX    TMP DP  RH WIND       PRES   REMARKS
BRADFORD       CLOUDY    65  61  87 SW7       30.12R
DUBOIS         MOSUNNY   67  62  84 SW7       30.12R
CLEARFIELD     MOSUNNY   65  62  90 SW5       30.13R
JOHNSTOWN      CLOUDY    66  60  81 SW7       30.16R
ALTOONA        MOSUNNY   68  63  84 SW5       30.15R
STATE COLLEGE  MOSUNNY   68  64  88 W6        30.13R
WILLIAMSPORT   PTSUNNY   69  65  86 CALM      30.09R
SELINSGROVE    PTSUNNY   73  67  81 S3        30.12R
FT INDIANTOWN  SUNNY     67  66  97 NE2       30.14R
CAPITAL CITY   MOSUNNY   74  66  76 CALM      30.13R
HARRISBURG     PTSUNNY   73  66  78 SE5       30.13R
YORK           SUNNY     72  67  84 SW5       30.14R
$$

PAZ038>040-043-044-047-048-054-055-060>062-067>071-271200-
EASTERN PENNSYLVANIA

CITY           SKY/WX    TMP DP  RH WIND       PRES   REMARKS
SCRANTON       PTSUNNY   73  64  73 CALM      30.13S
MOUNT POCONO   PTSUNNY   67  63  87 W6        30.18S
ALLENTOWN      MOSUNNY   71  65  81 S7        30.15R
QUAKERTOWN*    CLOUDY    70  68  94 S3        30.17S
READING        CLOUDY    73  66  78 S7        30.14R
LANCASTER      CLOUDY    71  67  87 SW7       30.14R
COATESVILLE    CLOUDY    72  70  94 SW5       30.17S
POTTSTOWN      CLOUDY    71  69  93 S6        30.17R
BLUE BELL      CLOUDY    72  68  88 SW6       30.16S
DOYLESTOWN     CLOUDY    69  66  90 S5        30.16R
WILLOW GROVE   NOT AVBL
NORTH PHILA    CLOUDY    73  65  75 SW10      30.18R
PHILADELPHIA   CLOUDY    73  67  81 S9        30.17S
$$


USA.gov is the U.S. government's official web portal to all federal, state and local government web resources and services.